Decorah, Iowa, United States (52101)
Lat: 43.30N, Lon: 91.79W
Wx Zone: IAZ010
Local Info
Past Weather Observations for Today

NOTE: This archive is for the closest National Weather Service station to Decorah. Information may differ from the station used for current weather conditions.

Click here for Long-term Archive

Time Weather Temperature Dewpoint Humidity Pressure Winds Precip Visibility
13:55
Overcast
23°F / -5°C 18°F / -8°C 80% 30.21 in
(1023 mb)
E 3.5 mph
(E 6 kph)
- 10SM
13:35
Overcast
23°F / -5°C 18°F / -8°C 80% 30.21 in
(1023 mb)
Calm - 10SM
13:15
Overcast
23°F / -5°C 18°F / -8°C 80% 30.21 in
(1023 mb)
Calm - 10SM
12:55
Overcast
23°F / -5°C 18°F / -8°C 80% 30.21 in
(1023 mb)
Calm - 10SM
12:35
Overcast
23°F / -5°C 16°F / -9°C 74% 30.24 in
(1024 mb)
ENE 4.6 mph
(ENE 7 kph)
- 10SM
12:15
Overcast
23°F / -5°C 18°F / -8°C 80% 30.24 in
(1024 mb)
SE 3.5 mph
(SE 6 kph)
- 10SM
11:55
Overcast
21°F / -6°C 18°F / -8°C 86% 30.24 in
(1024 mb)
Calm - 10SM
11:35
Overcast
21°F / -6°C 18°F / -8°C 86% 30.27 in
(1025 mb)
Calm - 10SM
11:15
Overcast
21°F / -6°C 18°F / -8°C 86% 30.27 in
(1025 mb)
Calm - 10SM
10:55
Overcast
19°F / -7°C 16°F / -9°C 86% 30.27 in
(1025 mb)
Calm - 8SM
10:35
Overcast
19°F / -7°C 16°F / -9°C 86% 30.27 in
(1025 mb)
Calm - 9SM
10:15
Overcast
18°F / -8°C 14°F / -10°C 86% 30.3 in
(1026 mb)
Calm - 8SM
09:55
Overcast
18°F / -8°C 14°F / -10°C 86% 30.3 in
(1026 mb)
Calm - 10SM
09:35
Overcast
18°F / -8°C 14°F / -10°C 86% 30.3 in
(1026 mb)
Calm - 9SM
09:15
Overcast
16°F / -9°C 12°F / -11°C 86% 30.27 in
(1025 mb)
Calm - 9SM
08:55
Overcast
16°F / -9°C 12°F / -11°C 86% 30.27 in
(1025 mb)
Calm - 9SM
08:35
Mostly Cloudy
16°F / -9°C 12°F / -11°C 86% 30.27 in
(1025 mb)
Calm - 8SM
08:15
Clear
14°F / -10°C 12°F / -11°C 92% 30.27 in
(1025 mb)
Calm - 8SM
07:55
Clear
14°F / -10°C 10°F / -12°C 85% 30.27 in
(1025 mb)
Calm - 8SM
07:35
Clear
14°F / -10°C 10°F / -12°C 85% 30.27 in
(1025 mb)
Calm - 10SM
07:15
Partly Cloudy
14°F / -10°C 12°F / -11°C 92% 30.27 in
(1025 mb)
NNW 3.5 mph
(NNW 6 kph)
- 10SM
06:55
Mostly Cloudy
14°F / -10°C 10°F / -12°C 85% 30.27 in
(1025 mb)
Calm - 9SM
06:35
Partly Cloudy
14°F / -10°C 12°F / -11°C 92% 30.27 in
(1025 mb)
Calm - 10SM
06:15
Clear
14°F / -10°C 12°F / -11°C 92% 30.27 in
(1025 mb)
Calm - 10SM
05:55
Clear
14°F / -10°C 12°F / -11°C 92% 30.27 in
(1025 mb)
Calm - 10SM
05:35
Clear
14°F / -10°C 10°F / -12°C 85% 30.24 in
(1024 mb)
Calm - 10SM
05:15
Clear
14°F / -10°C 12°F / -11°C 92% 30.24 in
(1024 mb)
NNE 3.5 mph
(NNE 6 kph)
- 10SM
04:55
Clear
14°F / -10°C 12°F / -11°C 92% 30.27 in
(1025 mb)
Calm - 10SM
04:35
Clear
14°F / -10°C 12°F / -11°C 92% 30.27 in
(1025 mb)
Calm - 10SM
04:15
Clear
14°F / -10°C 12°F / -11°C 92% 30.27 in
(1025 mb)
N 3.5 mph
(N 6 kph)
- 10SM
03:55
Clear
14°F / -10°C 12°F / -11°C 92% 30.27 in
(1025 mb)
Calm - 10SM
03:35
Clear
14°F / -10°C 12°F / -11°C 92% 30.27 in
(1025 mb)
Calm - 10SM
03:15
Clear
16°F / -9°C 12°F / -11°C 86% 30.27 in
(1025 mb)
Calm - 10SM
02:55
Clear
16°F / -9°C 12°F / -11°C 86% 30.27 in
(1025 mb)
Calm - 10SM
02:35
Clear
16°F / -9°C 12°F / -11°C 86% 30.27 in
(1025 mb)
Calm - 10SM
02:15
Clear
16°F / -9°C 12°F / -11°C 86% 30.27 in
(1025 mb)
Calm - 10SM
01:55
Partly Cloudy
16°F / -9°C 12°F / -11°C 86% 30.27 in
(1025 mb)
Calm - 10SM
01:35
Mostly Cloudy
16°F / -9°C 12°F / -11°C 86% 30.27 in
(1025 mb)
Calm - 10SM
01:15
Overcast
18°F / -8°C 12°F / -11°C 79% 30.27 in
(1025 mb)
Calm - 10SM
00:55
Overcast
18°F / -8°C 12°F / -11°C 79% 30.27 in
(1025 mb)
NE 3.5 mph
(NE 6 kph)
- 10SM
00:35
Overcast
18°F / -8°C 12°F / -11°C 79% 30.27 in
(1025 mb)
Calm - 10SM
00:15
Overcast
18°F / -8°C 14°F / -10°C 86% 30.3 in
(1026 mb)
Calm - 10SM
Time Weather Temperature Dewpoint Humidity Pressure Winds Precip Visibility


Weather for websites

WeatherForYou.com, LLC is not responsible for any damages or problems caused by this service. Current weather conditions are obtained from the closest station including government and personal stations which may have varying degrees of accuracy. Weather forecasts are derived from the NOAA NDFD. Like all things, this site belongs to Jesus Christ... He just trusts me to maintain it. If you have any questions or comments email webmaster@weatherforyou.com

Copyright © 2014, WeatherForYou.com LLC. All rights reserved.